FW7011 Weather Reports


time (UTC)temp
C
wind
direction
speed
KPH
gust
KPH
rain 1hr
cm
rain 24hr
cm
rain mn
cm
humidity
%
barometer
mb
20260508105620 5 106 9.7 11.3 0.00 0.00 0.00 86 1018.1
20260508105117 5 112 9.7 11.3 0.00 0.00 0.00 87 1017.9
20260508104615 5 104 6.4 8.0 0.00 0.00 0.00 90 1017.8
20260508104111 5 120 6.4 8.0 0.00 0.00 0.00 89 1017.8
20260508103609 5 109 4.8 8.0 0.00 0.00 0.00 87 1017.8
20260508103106 6 108 8.0 9.7 0.00 0.00 0.00 82 1017.5
20260508102603 7 83 3.2 6.4 0.00 0.00 0.00 75 1017.6
20260508102101 7 84 4.8 9.7 0.00 0.00 0.00 78 1017.6
20260508101558 6 115 6.4 9.7 0.00 0.00 0.00 82 1017.3
20260508101055 5 99 6.4 9.7 0.00 0.00 0.00 88 1017.4
20260508100553 5 101 8.0 9.7 0.00 0.00 0.00 89 1017.3
20260508100050 5 120 8.0 11.3 0.00 0.00 0.00 91 1017.1
20260508095547 5 106 9.7 12.9 0.00 0.00 0.00 91 1016.9
20260508095043 5 109 9.7 11.3 0.00 0.00 0.00 90 1017.1
20260508094541 6 111 8.0 8.0 0.00 0.00 0.00 87 1016.8
20260508094037 6 84 6.4 8.0 0.00 0.00 0.00 85 1016.9
20260508093534 6 114 9.7 11.3 0.00 0.00 0.00 84 1017.1
20260508093032 6 105 4.8 6.4 0.00 0.00 0.00 83 1017.0
20260508092529 7 226 6.4 6.4 0.00 0.00 0.00 79 1016.9
20260508092028 8 107 8.0 9.7 0.00 0.00 0.00 71 1016.9
20260508091525 9 105 6.4 9.7 0.00 0.00 0.00 66 1016.8
20260508091022 8 104 3.2 4.8 0.00 0.00 0.00 70 1016.7
20260508090520 7 107 6.4 6.4 0.00 0.00 0.00 77 1016.9
20260508090016 7 101 9.7 11.3 0.00 0.00 0.00 76 1016.8
20260508085513 7 104 6.4 8.0 0.00 0.00 0.00 82 1017.1
20260508085010 7 115 6.4 9.7 0.00 0.00 0.00 80 1016.8
20260508084507 7 98 8.0 8.0 0.00 0.00 0.00 79 1016.7
20260508084004 8 102 8.0 11.3 0.00 0.00 0.00 76 1016.5
20260508083501 8 101 4.8 8.0 0.00 0.00 0.00 78 1016.6
20260508082956 8 112 9.7 12.9 0.00 0.00 0.00 69 1016.4
20260508082453 8 96 9.7 12.9 0.00 0.00 0.00 77 1016.5
20260508081951 8 99 8.0 11.3 0.00 0.00 0.00 72 1016.1
20260508081448 8 111 9.7 11.3 0.00 0.00 0.00 74 1016.4
20260508080944 7 102 8.0 12.9 0.00 0.00 0.00 79 1016.0
20260508080442 7 114 9.7 11.3 0.00 0.00 0.00 78 1016.4
20260508075939 8 111 8.0 11.3 0.00 0.00 0.00 79 1016.1
20260508075436 7 102 8.0 9.7 0.00 0.00 0.00 83 1016.1
20260508074933 7 96 8.0 11.3 0.00 0.00 0.00 86 1016.1
20260508074431 7 108 8.0 9.7 0.00 0.00 0.00 85 1016.1
20260508073927 8 108 6.4 9.7 0.00 0.00 0.00 78 1016.2
20260508073425 8 87 8.0 9.7 0.00 0.00 0.00 74 1015.9
20260508072922 7 97 8.0 8.0 0.00 0.00 0.00 81 1016.4
20260508072418 7 106 8.0 9.7 0.00 0.00 0.00 84 1016.1
20260508071916 8 132 4.8 9.7 0.00 0.00 0.00 80 1016.0
20260508071413 7 103 11.3 11.3 0.00 0.00 0.00 87 1016.1
20260508070911 7 104 8.0 9.7 0.00 0.00 0.00 87 1015.7
20260508070408 7 100 8.0 11.3 0.00 0.00 0.00 87 1015.8
20260508065906 7 118 11.3 11.3 0.00 0.00 0.00 84 1015.7
20260508065404 7 115 9.7 11.3 0.00 0.00 0.00 83 1015.8
20260508064902 7 108 8.0 11.3 0.00 0.00 0.00 88 1016.0
20260508064359 7 108 9.7 11.3 0.00 0.00 0.00 86 1016.0
20260508063857 7 104 6.4 9.7 0.00 0.00 0.00 84 1016.0
20260508063354 10 123 6.4 8.0 0.00 0.00 0.00 75 1015.8
20260508062851 10 110 4.8 9.7 0.00 0.00 0.00 73 1015.8
20260508062349 10 106 8.0 14.5 0.00 0.00 0.00 71 1015.9
20260508061846 8 86 6.4 8.0 0.00 0.00 0.00 82 1015.8
20260508061343 10 99 8.0 9.7 0.00 0.00 0.00 76 1015.9
20260508060839 10 80 4.8 8.0 0.00 0.00 0.00 72 1016.1
20260508060337 10 102 4.8 4.8 0.00 0.00 0.00 68 1015.7
20260508055832 9 105 6.4 8.0 0.00 0.00 0.00 77 1015.9
20260508055330 8 109 8.0 8.0 0.00 0.00 0.00 82 1016.2
20260508054826 9 102 8.0 9.7 0.00 0.00 0.00 78 1015.9
20260508054324 8 103 4.8 12.9 0.00 0.00 0.00 84 1015.9
20260508053820 9 91 6.4 9.7 0.00 0.00 0.00 82 1016.0
20260508053318 9 109 8.0 8.0 0.00 0.00 0.00 79 1016.0
20260508052815 8 106 8.0 12.9 0.00 0.00 0.00 80 1015.8
20260508052312 10 110 8.0 9.7 0.00 0.00 0.00 78 1015.9
20260508051808 10 120 8.0 9.7 0.00 0.00 0.00 73 1015.8
20260508051304 10 112 6.4 8.0 0.00 0.00 0.00 79 1015.7
20260508050801 11 124 8.0 9.7 0.00 0.00 0.00 68 1015.6
20260508050258 10 110 8.0 11.3 0.00 0.00 0.00 77 1015.7
20260508045753 9 114 9.7 11.3 0.00 0.00 0.00 81 1015.7
20260508045251 10 129 4.8 8.0 0.00 0.00 0.00 78 1015.5
20260508044749 11 143 4.8 4.8 0.00 0.00 0.00 66 1015.6
20260508044245 12 106 1.6 9.7 0.00 0.00 0.00 61 1015.4
20260508043741 12 136 4.8 4.8 0.00 0.00 0.00 65 1015.1
20260508043239 12 58 0.0 4.8 0.00 0.00 0.00 64 1015.3
20260508042735 12 317 6.4 9.7 0.00 0.00 0.00 63 1015.3
20260508042233 12 249 1.6 8.0 0.00 0.00 0.00 66 1015.0
20260508041729 11 91 4.8 11.3 0.00 0.00 0.00 69 1015.2
20260508041226 11 134 1.6 8.0 0.00 0.00 0.00 76 1015.3
20260508040723 12 209 3.2 6.4 0.00 0.00 0.00 68 1015.1
20260508040220 12 310 0.0 6.4 0.00 0.00 0.00 65 1015.1
20260508035717 12 326 3.2 4.8 0.00 0.20 0.20 64 1015.1
20260508035215 12 348 0.0 8.0 0.00 0.20 0.20 64 1015.1
20260508034711 12 10 0.0 4.8 0.00 0.20 0.20 64 1015.1
20260508034209 12 345 4.8 14.5 0.00 0.20 0.20 64 1015.0
20260508033705 12 328 3.2 8.0 0.00 0.20 0.20 65 1014.9
20260508033204 12 27 6.4 8.0 0.00 0.20 0.20 67 1014.9
20260508032700 12 87 4.8 4.8 0.00 0.20 0.20 68 1015.0
20260508032158 12 78 3.2 4.8 0.00 0.20 0.20 66 1014.9
20260508031654 12 21 4.8 8.0 0.00 0.20 0.20 64 1014.9
20260508031151 12 79 3.2 4.8 0.00 0.20 0.20 65 1014.9
20260508030647 12 330 0.0 8.0 0.00 0.20 0.20 66 1014.6
20260508030145 12 16 3.2 4.8 0.00 0.20 0.20 66 1014.8
20260508025641 12 71 4.8 6.4 0.00 0.20 0.20 67 1014.8
20260508025138 12 353 1.6 4.8 0.00 0.20 0.20 65 1014.6
20260508024634 12 49 3.2 11.3 0.00 0.20 0.20 65 1014.7
20260508024132 12 40 0.0 4.8 0.00 0.20 0.20 69 1014.6
20260508023627 12 84 3.2 4.8 0.00 0.20 0.20 70 1014.5
20260508023125 12 74 4.8 4.8 0.00 0.20 0.20 70 1014.3
20260508022621 12 61 4.8 6.4 0.00 0.20 0.20 69 1014.3
20260508022118 11 70 3.2 4.8 0.00 0.20 0.20 71 1014.6
20260508021613 11 97 3.2 4.8 0.00 0.20 0.20 71 1014.3
20260508021110 12 325 3.2 6.4 0.00 0.20 0.20 69 1014.3
20260508020608 12 354 4.8 8.0 0.00 0.20 0.20 68 1014.2
20260508020105 12 314 11.3 11.3 0.00 0.20 0.20 68 1014.0
20260508015603 12 345 4.8 6.4 0.00 0.20 0.20 70 1014.4
20260508015059 12 340 3.2 6.4 0.00 0.20 0.20 70 1013.9
20260508014555 12 30 1.6 11.3 0.00 0.20 0.20 70 1013.9
20260508014052 11 1 4.8 4.8 0.00 0.20 0.20 72 1013.7
20260508013548 12 359 3.2 6.4 0.00 0.20 0.20 70 1013.7
20260508013045 12 296 3.2 4.8 0.00 0.20 0.20 70 1013.4
20260508012542 12 84 0.0 6.4 0.00 0.20 0.20 69 1013.3
20260508012040 12 291 3.2 6.4 0.00 0.20 0.20 69 1013.3
20260508011538 12 56 8.0 8.0 0.00 0.20 0.20 68 1013.2
20260508011035 11 37 1.6 6.4 0.00 0.20 0.20 72 1013.1
20260508010532 11 98 4.8 6.4 0.00 0.20 0.20 73 1013.1
20260508010030 12 106 3.2 8.0 0.00 0.20 0.20 73 1013.1
20260508005526 12 111 4.8 6.4 0.00 0.20 0.20 72 1013.0
20260508005023 12 101 4.8 8.0 0.00 0.20 0.20 77 1013.0
20260508004518 12 110 3.2 8.0 0.00 0.20 0.20 74 1013.0
20260508004015 12 123 3.2 6.4 0.00 0.20 0.20 73 1013.3
20260508003512 13 65 3.2 4.8 0.00 0.20 0.20 66 1013.2
20260508003009 13 42 4.8 8.0 0.00 0.20 0.20 63 1013.1
20260508002505 13 258 3.2 6.4 0.00 0.20 0.20 63 1013.2
20260508002003 13 259 4.8 6.4 0.00 0.20 0.20 63 1013.2
20260508001458 13 344 3.2 14.5 0.00 0.20 0.20 62 1013.0
20260508000955 14 304 4.8 12.9 0.00 0.20 0.20 63 1013.0
20260508000450 14 304 11.3 11.3 0.00 0.20 0.20 62 1013.0
20260507235948 14 9 4.8 9.7 0.00 0.20 0.20 63 1013.0
20260507235445 14 314 6.4 14.5 0.00 0.20 0.20 62 1013.1
20260507234943 15 321 8.0 12.9 0.00 0.20 0.20 62 1012.9
20260507234439 15 346 19.3 24.1 0.00 0.20 0.20 60 1013.0
20260507233935 15 250 3.2 8.0 0.00 0.20 0.20 63 1012.9
20260507233432 16 347 3.2 9.7 0.00 0.20 0.20 63 1012.8
20260507232930 16 246 12.9 14.5 0.00 0.20 0.20 62 1012.8
20260507232421 16 339 6.4 14.5 0.00 0.20 0.20 63 1012.6
20260507231918 16 334 11.3 12.9 0.00 0.20 0.20 64 1012.8
20260507231414 15 322 6.4 9.7 0.00 0.20 0.20 67 1012.7
20260507230911 15 246 17.7 17.7 0.00 0.20 0.20 66 1012.5
20260507230409 15 279 6.4 12.9 0.00 0.20 0.20 67 1012.4
20260507225908 15 310 8.0 14.5 0.00 0.20 0.20 69 1012.1
20260507225405 15 318 8.0 11.3 0.00 0.20 0.20 70 1012.4
20260507224901 15 334 12.9 14.5 0.00 0.20 0.20 70 1012.2
20260507224357 15 55 1.6 6.4 0.00 0.20 0.20 73 1012.1
20260507223854 15 1 3.2 4.8 0.00 0.20 0.20 74 1012.2
20260507223350 15 269 3.2 4.8 0.00 0.20 0.20 74 1012.2
20260507222847 15 1 3.2 11.3 0.00 0.20 0.20 73 1011.9
20260507222343 15 346 4.8 8.0 0.00 0.20 0.20 73 1011.9
20260507221841 15 80 3.2 8.0 0.00 0.20 0.20 73 1011.9
20260507221337 15 310 1.6 14.5 0.00 0.20 0.20 72 1011.8
20260507220833 15 62 0.0 6.4 0.00 0.20 0.20 73 1011.7
20260507220332 15 17 4.8 17.7 0.00 0.20 0.20 71 1011.3
20260507215827 16 13 4.8 16.1 0.00 0.20 0.20 70 1011.6
20260507215325 15 348 4.8 12.9 0.00 0.20 0.20 72 1011.7
20260507214822 15 357 4.8 14.5 0.00 0.20 0.20 74 1011.7
20260507214320 16 302 6.4 11.3 0.00 0.20 0.20 74 1011.5
20260507213814 16 303 8.0 11.3 0.00 0.20 0.20 76 1011.5
20260507213312 16 88 4.8 19.3 0.00 0.20 0.20 75 1011.3
20260507212808 16 21 6.4 9.7 0.00 0.20 0.20 75 1011.3
20260507212307 16 10 3.2 6.4 0.00 0.20 0.20 76 1011.3
20260507211801 16 62 3.2 12.9 0.00 0.20 0.20 75 1010.7
20260507211257 16 37 8.0 14.5 0.00 0.20 0.20 81 1011.0
20260507210754 16 98 6.4 11.3 0.00 0.20 0.20 85 1010.9
20260507210251 16 13 4.8 8.0 0.00 0.20 0.20 83 1010.7
20260507205748 16 92 9.7 9.7 0.00 0.20 0.20 82 1010.9
20260507205245 17 80 11.3 17.7 0.00 0.20 0.20 78 1010.5
20260507204741 18 68 3.2 11.3 0.00 0.20 0.20 77 1010.6
20260507204239 18 24 8.0 16.1 0.00 0.20 0.20 74 1010.7
20260507203736 17 104 12.9 14.5 0.00 0.20 0.20 82 1010.7
20260507203233 16 91 4.8 11.3 0.00 0.20 0.20 85 1010.9
20260507202730 16 117 9.7 11.3 0.00 0.20 0.20 86 1010.7
20260507202226 16 118 8.0 12.9 0.00 0.20 0.20 87 1010.6
20260507201721 16 118 8.0 12.9 0.00 0.20 0.20 86 1010.3
20260507201218 16 111 8.0 11.3 0.00 0.20 0.20 84 1010.6
20260507200714 16 118 11.3 11.3 0.00 0.20 0.20 83 1010.7
20260507200210 16 68 6.4 9.7 0.00 0.20 0.20 84 1010.9
20260507195707 16 123 4.8 14.5 0.00 0.20 0.20 86 1010.7
20260507195204 16 121 4.8 9.7 0.00 0.20 0.20 90 1011.1
20260507194701 15 88 9.7 14.5 0.00 0.20 0.20 91 1011.1
20260507194156 14 77 9.7 17.7 0.00 0.20 0.20 94 1011.0
20260507193654 13 104 4.8 11.3 0.05 0.20 0.20 95 1011.1
20260507193151 13 125 8.0 9.7 0.05 0.20 0.20 95 1011.4
20260507192646 13 101 6.4 8.0 0.05 0.20 0.20 95 1011.3
20260507192144 13 100 6.4 8.0 0.05 0.20 0.20 95 1011.6
20260507191639 13 108 6.4 8.0 0.13 0.18 0.18 94 1011.7
20260507191136 13 79 4.8 6.4 0.13 0.18 0.18 95 1011.4
20260507190634 13 127 9.7 9.7 0.18 0.18 0.18 94 1011.4
20260507190133 13 101 6.4 8.0 0.18 0.15 0.15 94 1011.7
20260507185630 13 103 8.0 11.3 0.23 0.13 0.13 94 1011.3
20260507185126 13 318 4.8 9.7 0.18 0.10 0.10 92 1011.8
20260507184625 13 61 6.4 6.4 0.05 0.10 0.10 90 1012.0
20260507184122 13 89 1.6 6.4 0.00 0.08 0.08 89 1011.8
20260507183618 14 128 4.8 4.8 0.00 0.08 0.08 89 1011.7
20260507183115 14 44 6.4 8.0 0.00 0.08 0.08 89 1011.6
20260507182612 14 54 6.4 9.7 0.00 0.08 0.08 88 1011.6
20260507182108 14 106 4.8 11.3 0.00 0.08 0.08 88 1011.5
20260507181605 14 54 1.6 6.4 0.00 0.08 0.08 89 1011.7
20260507181101 14 332 3.2 6.4 0.00 0.08 0.08 89 1012.0
20260507180558 14 124 3.2 6.4 0.00 0.08 0.08 89 1011.6
20260507180054 14 68 4.8 14.5 0.00 0.08 0.08 89 1011.5
20260507175550 14 154 1.6 8.0 0.00 0.08 0.08 89 1011.6
20260507175048 14 16 11.3 14.5 0.00 0.08 0.08 88 1011.6
20260507174545 14 15 4.8 12.9 0.00 0.08 0.08 89 1011.4
20260507174043 14 1 6.4 9.7 0.00 0.08 0.08 89 1011.5
20260507173540 14 53 4.8 11.3 0.00 0.08 0.08 89 1011.4
20260507173037 15 29 4.8 8.0 0.00 0.08 0.08 89 1011.6
20260507172532 15 27 6.4 8.0 0.00 0.08 0.08 89 1011.7
20260507172030 15 284 1.6 8.0 0.00 0.08 0.08 89 1011.7
20260507171525 15 313 6.4 11.3 0.00 0.08 0.08 88 1011.5
20260507171023 15 46 4.8 8.0 0.00 0.08 0.08 88 1011.3
20260507170519 15 28 6.4 9.7 0.00 0.08 0.08 88 1011.7
20260507170016 15 311 3.2 9.7 0.00 0.08 0.08 88 1011.5
20260507165512 15 114 3.2 6.4 0.00 0.08 0.08 89 1011.5
20260507165009 15 321 3.2 8.0 0.00 0.08 0.08 89 1011.5
20260507164505 16 19 3.2 6.4 0.00 0.08 0.08 89 1011.6
20260507164002 16 49 1.6 4.8 0.00 0.08 0.08 89 1011.2
20260507163459 16 315 4.8 8.0 0.00 0.08 0.08 88 1011.2
20260507162956 16 342 6.4 8.0 0.00 0.08 0.08 89 1011.2
20260507162451 16 68 6.4 11.3 0.00 0.08 0.08 88 1011.3
20260507161949 16 24 6.4 9.7 0.00 0.08 0.08 88 1011.3
20260507161445 16 356 3.2 6.4 0.00 0.08 0.08 89 1011.5
20260507160942 16 12 3.2 6.4 0.00 0.08 0.08 88 1011.3
20260507160438 16 340 1.6 4.8 0.00 0.08 0.08 88 1011.4
20260507155933 16 327 1.6 4.8 0.00 0.08 0.08 88 1011.7
20260507155430 16 333 3.2 4.8 0.00 0.08 0.08 89 1011.6
20260507154927 16 73 4.8 4.8 0.00 0.08 0.08 89 1011.4
20260507154423 16 37 3.2 8.0 0.00 0.08 0.08 90 1011.6
20260507153921 16 312 0.0 6.4 0.00 0.08 0.08 90 1011.4
20260507153417 17 322 4.8 8.0 0.00 0.08 0.08 90 1011.3
20260507152914 17 53 4.8 8.0 0.00 0.08 0.08 89 1011.5
20260507152410 17 242 3.2 6.4 0.00 0.08 0.08 88 1011.4
20260507151906 17 328 3.2 6.4 0.00 0.08 0.08 89 1011.3
20260507151403 17 280 1.6 4.8 0.00 0.08 0.08 91 1011.4
20260507150900 17 359 4.8 4.8 0.00 0.08 0.08 91 1011.5
20260507150356 17 343 1.6 4.8 0.00 0.08 0.08 91 1011.5
20260507145852 17 51 3.2 8.0 0.00 0.08 0.08 92 1011.6
20260507145349 17 313 1.6 4.8 0.00 0.08 0.08 92 1011.4
20260507144846 17 5 1.6 4.8 0.00 0.08 0.08 93 1011.8
20260507144343 18 15 4.8 4.8 0.00 0.08 0.08 93 1011.6
20260507143840 17 234 0.0 3.2 0.00 0.08 0.08 95 1011.5
20260507143337 17 89 3.2 3.2 0.00 0.08 0.08 96 1011.5
20260507142833 17 106 3.2 6.4 0.00 0.08 0.08 96 1011.2
20260507142330 17 47 1.6 11.3 0.00 0.08 0.08 96 1011.4
20260507141826 17 349 3.2 6.4 0.00 0.08 0.08 98 1011.4
20260507141323 17 65 3.2 8.0 0.00 0.08 0.08 99 1011.3
20260507140820 16 36 3.2 6.4 0.00 0.08 0.08 99 1011.3
20260507140316 17 327 3.2 4.8 0.00 0.08 0.08 99 1011.2
20260507135815 16 316 3.2 4.8 0.00 0.08 0.08 99 1011.2
20260507135311 16 310 4.8 4.8 0.00 0.08 0.08 99 1011.1
20260507134808 16 106 1.6 4.8 0.00 0.08 0.08 99 1011.0
20260507134304 16 69 3.2 3.2 0.00 0.08 0.08 99 1011.0
20260507133800 16 83 3.2 6.4 0.00 0.08 0.08 99 1011.3
20260507133256 16 11 4.8 4.8 0.00 0.08 0.08 99 1011.2
20260507132754 16 57 3.2 8.0 0.00 0.08 0.08 99 1011.1
20260507132251 16 61 4.8 6.4 0.00 0.08 0.08 99 1011.0
20260507131748 16 76 4.8 8.0 0.00 0.08 0.08 99 1011.5
20260507131245 16 47 4.8 6.4 0.00 0.08 0.08 99 1011.7
20260507130741 16 36 4.8 4.8 0.00 0.08 0.08 99 1011.8
20260507130239 16 350 3.2 3.2 0.00 0.08 0.08 99 1011.9
20260507125738 16 141 0.0 4.8 0.00 0.08 0.08 99 1011.8
20260507125235 16 327 1.6 3.2 0.00 0.08 0.08 99 1012.1
20260507124731 16 239 1.6 6.4 0.00 0.08 0.08 99 1012.3
20260507124228 16 217 3.2 4.8 0.00 0.08 0.08 99 1012.1
20260507123727 16 284 3.2 3.2 0.00 0.08 0.08 99 1012.2
20260507123224 16 132 3.2 4.8 0.00 0.08 0.08 99 1011.9
20260507122719 16 157 0.0 3.2 0.00 0.08 0.08 99 1012.1
20260507122215 16 233 0.0 3.2 0.00 0.08 0.08 99 1012.2
20260507121711 16 288 1.6 4.8 0.00 0.08 0.08 99 1012.2
20260507121207 16 226 0.0 3.2 0.00 0.08 0.08 99 1012.1
20260507120703 16 213 1.6 4.8 0.00 0.08 0.08 99 1012.4
20260507120201 16 244 3.2 4.8 0.00 0.08 0.08 99 1012.3
20260507115656 16 237 3.2 4.8 0.00 0.08 0.08 99 1012.1
20260507115152 16 45 1.6 3.2 0.00 0.08 0.08 99 1012.0
20260507114648 16 226 0.0 3.2 0.00 0.08 0.08 99 1011.7
20260507114146 16 140 3.2 3.2 0.00 0.08 0.08 99 1011.6
20260507113643 16 96 3.2 4.8 0.00 0.08 0.08 99 1011.4
20260507113140 16 140 0.0 4.8 0.00 0.08 0.08 99 1011.8
20260507112638 16 179 0.0 3.2 0.00 0.08 0.08 99 1011.7
20260507112134 16 111 0.0 3.2 0.00 0.08 0.08 99 1011.5
20260507111631 16 98 3.2 6.4 0.00 0.08 0.08 99 1011.4
20260507111128 16 125 4.8 8.0 0.00 0.08 0.08 99 1011.5
20260507110624 16 115 4.8 4.8 0.00 0.08 0.08 99 1011.3
20260507110121 16 131 0.0 4.8 0.00 0.08 0.08 99 1011.4